Vorticity
6 6 7 6 7 6 2 1 -3 5 11 12 12 11 10 8 9 7 -1 -6 1 2 4 -0 3 1 7 21 13 12 18 22 31 25 21 27 26 19 21 19 14 34 26 16 3
6 6 5 6 7 4 4 3 1 4 11 18 13 12 12 5 10 1 -4 2 3 5 4 5 -3 1 -15 27 12 18 22 28 24 25 23 23 28 28 28 19 17 47 19 -8 10
5 5 6 5 6 5 5 4 3 4 17 19 13 11 11 7 5 4 6 8 5 -2 3 -2 2 4 9 17 16 14 22 28 20 24 14 12 13 23 26 29 5 38 13 22 9
5 5 6 4 5 8 8 -1 9 6 16 15 12 9 5 10 12 6 3 -5 -4 1 1 0 -1 14 14 19 14 24 18 25 29 15 12 13 11 13 19 27 8 44 20 -3 2
5 4 6 6 5 7 5 1 8 6 18 10 10 2 5 3 6 6 0 5 7 2 -3 4 2 23 13 20 22 16 28 20 25 12 12 14 14 11 12 13 19 32 27 -33 -4
5 6 7 5 7 4 5 1 10 6 18 9 11 1 10 2 10 9 11 10 6 2 2 -3 11 12 12 15 18 21 22 32 15 8 9 16 21 15 21 8 22 39 5 19 8
5 7 7 6 10 6 -3 7 7 11 14 11 3 7 -2 4 -1 6 9 -4 -9 0 2 2 21 26 16 21 16 18 29 38 11 7 3 1 25 20 19 15 40 21 5 -15 -5
7 5 5 6 6 9 -0 11 4 19 11 9 2 5 3 5 7 1 2 9 3 1 6 8 24 18 19 20 19 26 34 27 6 17 5 7 23 19 25 35 47 33 11 -60 -3
5 5 -1 -6 1 10 5 9 6 19 9 6 -1 2 3 5 7 9 4 3 0 5 0 13 11 21 27 15 33 27 37 19 -0 -6 6 11 27 5 13 8 72 37 11 -35 30
12 3 -11 -4 20 6 6 5 8 17 9 5 0 4 1 6 1 1 7 2 5 3 3 13 8 27 25 17 37 28 20 11 7 1 4 12 23 9 10 12 30 69 15 -17 -13
7 -0 12 14 6 7 6 3 9 19 11 6 1 2 6 5 8 5 7 1 2 5 7 20 22 32 23 22 32 13 16 17 24 5 15 25 -4 6 9 10 58 44 65 -10 -31
5 -2 5 17 8 6 3 2 3 20 4 4 5 5 -2 3 4 7 1 2 2 3 3 19 16 34 16 28 25 19 14 11 11 16 15 21 2 4 18 21 -15 50 51 7 -17
-10 12 8 11 8 3 3 8 9 19 3 7 2 -1 2 3 0 -4 3 2 0 3 6 28 18 25 12 33 14 14 13 7 14 17 20 -5 0 12 -5 32 7 8 41 55 9
2 11 9 11 3 5 6 4 22 13 3 3 0 8 4 2 1 7 5 4 1 4 -3 30 23 20 16 26 20 11 5 7 16 10 20 22 15 29 6 27 20 -26 37 53 -29
15 6 8 12 8 5 4 5 21 10 5 2 3 4 3 2 1 3 2 1 1 2 6 19 19 24 15 34 19 13 8 15 11 0 16 -11 23 14 9 19 16 30 1 26 54
8 4 9 8 5 2 1 2 17 6 9 4 3 4 8 3 5 4 3 3 1 3 3 30 28 17 11 38 21 11 9 14 -11 1 9 16 9 6 9 4 15 4 29 10 40
7 6 4 6 5 3 6 2 12 5 7 3 -0 0 2 2 6 5 1 2 3 7 13 26 27 17 14 27 26 14 6 12 -5 -13 14 17 11 5 1 12 -3 -12 22 22 39
4 5 3 4 8 6 3 4 7 14 3 3 -2 -3 -1 -3 3 4 4 0 3 5 10 31 15 17 11 31 33 20 -8 8 -4 -0 12 11 25 11 9 11 2 37 30 12 21
0 3 0 -0 2 7 5 3 9 15 7 3 2 -0 -6 2 8 5 6 2 4 7 24 29 14 12 8 28 39 11 12 10 5 -2 5 9 18 18 -5 1 8 15 29 17 12
16 10 2 0 2 6 4 2 18 12 8 5 3 -1 0 5 8 6 5 1 4 7 15 14 20 12 10 17 38 14 4 21 11 4 5 -0 15 15 11 13 1 -6 38 26 12
12 3 0 9 1 7 5 2 13 10 8 7 4 3 6 4 5 4 1 1 4 7 20 24 20 10 10 16 24 25 6 11 10 -2 18 7 5 11 16 8 15 -3 45 27 6
7 13 7 3 7 3 6 1 15 8 8 4 3 4 9 5 4 4 3 4 4 6 18 32 17 9 9 12 21 40 9 11 10 -1 18 10 4 -2 -1 9 11 18 26 25 12
8 13 6 -2 10 7 4 6 9 9 5 3 1 7 7 6 5 3 2 3 2 9 12 23 18 9 12 9 20 26 18 13 6 -5 16 6 11 -4 10 -12 16 16 39 19 16
0 8 8 -9 8 6 5 5 12 8 5 -0 6 6 4 8 1 2 1 6 3 11 21 24 15 11 8 10 15 24 34 9 10 -6 20 11 6 7 3 3 -8 7 33 13 27
6 -12 6 11 6 7 5 7 12 4 -0 11 6 8 2 9 2 3 2 7 6 13 20 26 16 11 5 11 16 21 14 25 12 3 -2 6 9 11 9 9 2 6 46 27 27
6 2 -11 8 6 6 5 9 9 1 8 6 6 7 4 7 3 1 5 5 9 17 23 12 13 10 5 10 16 19 18 17 15 14 -6 5 9 7 6 14 5 9 19 56 5
3 8 16 3 5 9 5 5 7 1 9 2 5 6 6 5 2 1 5 3 12 17 28 20 13 9 6 9 15 22 22 10 19 14 10 -3 6 8 10 8 5 -2 28 36 31
Height
5840 5837 5834 5831 5827 5823 5819 5815 5809 5802 5796 5791 5786 5782 5779 5775 5772 5769 5765 5759 5752 5744 5735 5724 5712 5699 5681 5664 5643 5626 5608 5599 5588 5579 5575 5567 5567 5568 5571 5582 5592 5604 5619 5633 5646
5838 5835 5831 5828 5825 5821 5817 5812 5806 5799 5792 5786 5782 5779 5776 5772 5768 5764 5759 5752 5745 5738 5730 5719 5706 5689 5672 5651 5633 5616 5598 5589 5576 5571 5567 5562 5560 5561 5565 5576 5587 5597 5610 5625 5635
5835 5832 5829 5825 5822 5817 5814 5809 5803 5796 5788 5783 5779 5776 5773 5769 5764 5760 5753 5746 5740 5733 5722 5708 5695 5679 5659 5637 5621 5604 5588 5582 5570 5565 5563 5561 5560 5558 5564 5572 5581 5589 5602 5616 5628
5831 5829 5826 5822 5818 5814 5810 5805 5799 5793 5786 5781 5776 5773 5769 5765 5762 5755 5749 5743 5736 5727 5714 5700 5683 5665 5647 5626 5608 5596 5580 5571 5568 5564 5561 5560 5559 5560 5564 5570 5574 5586 5599 5603 5620
5827 5825 5822 5818 5814 5810 5806 5801 5795 5790 5784 5779 5775 5771 5768 5763 5758 5752 5747 5739 5729 5719 5706 5691 5676 5657 5636 5615 5598 5585 5574 5567 5562 5561 5560 5557 5557 5557 5562 5564 5570 5580 5593 5594 5614
5823 5821 5818 5814 5810 5807 5803 5798 5791 5786 5781 5776 5773 5770 5766 5762 5754 5747 5743 5732 5723 5712 5698 5685 5668 5647 5625 5605 5588 5580 5568 5562 5560 5560 5558 5558 5557 5558 5562 5565 5569 5573 5588 5597 5610
5820 5816 5814 5810 5806 5803 5798 5793 5787 5782 5778 5773 5770 5766 5762 5758 5751 5743 5735 5727 5717 5705 5692 5676 5658 5634 5612 5596 5580 5571 5563 5557 5557 5559 5557 5557 5556 5555 5557 5560 5566 5568 5576 5587 5607
5816 5813 5810 5806 5802 5798 5794 5788 5783 5778 5774 5770 5766 5763 5758 5753 5747 5739 5729 5721 5713 5700 5684 5667 5646 5623 5605 5590 5576 5565 5559 5555 5558 5557 5557 5556 5554 5552 5552 5556 5561 5567 5572 5583 5602
5811 5808 5805 5803 5798 5794 5789 5784 5779 5774 5771 5766 5763 5759 5755 5749 5742 5736 5728 5717 5705 5693 5678 5660 5637 5616 5600 5586 5572 5562 5558 5557 5559 5558 5556 5557 5554 5553 5552 5553 5557 5564 5568 5580 5598
5806 5803 5801 5798 5794 5789 5785 5780 5775 5770 5768 5764 5760 5758 5753 5746 5739 5729 5722 5712 5699 5686 5669 5650 5631 5610 5595 5584 5572 5565 5560 5559 5560 5558 5558 5558 5556 5555 5555 5556 5559 5567 5570 5587 5597
5801 5799 5797 5794 5789 5785 5781 5776 5773 5769 5764 5760 5758 5751 5746 5741 5734 5726 5717 5707 5695 5680 5662 5642 5624 5607 5595 5582 5572 5567 5562 5560 5560 5560 5560 5560 5559 5558 5558 5559 5562 5567 5573 5585 5597
5795 5794 5792 5788 5785 5780 5776 5772 5767 5764 5761 5757 5753 5749 5744 5738 5731 5723 5714 5701 5690 5674 5653 5635 5619 5602 5589 5580 5575 5571 5566 5564 5564 5562 5562 5562 5562 5560 5562 5562 5563 5568 5575 5584 5596
5788 5788 5787 5783 5779 5776 5771 5767 5763 5760 5757 5753 5749 5744 5740 5734 5726 5717 5707 5695 5682 5668 5651 5631 5612 5597 5588 5581 5573 5572 5570 5568 5566 5566 5566 5565 5565 5565 5565 5565 5566 5570 5571 5578 5591
5783 5782 5781 5779 5775 5770 5767 5763 5758 5755 5753 5751 5745 5740 5734 5728 5721 5711 5700 5690 5678 5664 5646 5629 5609 5597 5588 5581 5577 5574 5572 5572 5569 5569 5569 5568 5568 5566 5567 5568 5569 5573 5575 5578 5585
5777 5775 5774 5773 5770 5765 5763 5758 5753 5752 5749 5747 5741 5736 5729 5723 5713 5705 5696 5683 5671 5659 5644 5627 5612 5601 5591 5583 5578 5577 5575 5575 5573 5571 5572 5570 5569 5567 5569 5571 5573 5576 5580 5580 5586
5770 5769 5767 5766 5764 5761 5757 5753 5750 5749 5744 5742 5736 5730 5725 5718 5710 5700 5690 5681 5668 5652 5638 5623 5609 5597 5589 5583 5579 5578 5577 5577 5575 5573 5573 5570 5570 5570 5568 5569 5571 5573 5575 5576 5584
5764 5762 5761 5760 5759 5755 5752 5749 5747 5744 5741 5738 5732 5727 5722 5714 5707 5698 5689 5680 5670 5659 5641 5623 5610 5597 5592 5584 5580 5579 5579 5578 5578 5576 5574 5572 5573 5572 5570 5571 5572 5577 5579 5581 5586
5757 5756 5755 5753 5752 5751 5747 5745 5742 5738 5735 5732 5728 5722 5717 5710 5702 5693 5685 5674 5662 5649 5635 5621 5610 5602 5592 5584 5580 5580 5579 5580 5578 5578 5576 5574 5573 5574 5574 5575 5577 5575 5576 5580 5585
5751 5750 5749 5748 5746 5744 5743 5740 5736 5732 5730 5727 5723 5718 5712 5705 5697 5689 5680 5671 5658 5647 5634 5619 5608 5598 5591 5585 5583 5581 5581 5580 5581 5579 5578 5578 5577 5576 5575 5576 5576 5575 5574 5577 5584
5743 5744 5744 5742 5740 5739 5737 5735 5731 5727 5725 5721 5717 5713 5707 5700 5693 5685 5675 5666 5655 5641 5627 5617 5609 5600 5592 5586 5583 5581 5581 5581 5581 5581 5580 5580 5579 5577 5578 5577 5577 5576 5578 5581 5587
5736 5738 5738 5736 5735 5734 5732 5730 5726 5723 5721 5717 5713 5709 5703 5695 5688 5681 5672 5663 5651 5637 5626 5614 5607 5601 5594 5588 5582 5581 5580 5580 5581 5581 5580 5581 5580 5579 5580 5580 5578 5578 5579 5582 5585
5729 5731 5732 5730 5730 5728 5726 5724 5722 5718 5715 5712 5709 5703 5698 5691 5683 5676 5668 5659 5648 5637 5627 5616 5608 5601 5595 5588 5583 5580 5579 5581 5580 5580 5580 5580 5582 5580 5578 5577 5578 5576 5577 5580 5584
5721 5723 5724 5725 5723 5722 5720 5718 5716 5714 5711 5707 5704 5699 5693 5687 5680 5671 5663 5655 5646 5635 5624 5613 5607 5600 5593 5588 5583 5579 5578 5578 5580 5578 5579 5580 5581 5581 5580 5579 5578 5576 5574 5578 5585
5714 5716 5716 5718 5717 5715 5714 5712 5711 5709 5706 5702 5698 5694 5688 5681 5675 5667 5660 5652 5642 5632 5621 5610 5604 5598 5592 5586 5581 5577 5577 5576 5578 5578 5579 5579 5579 5581 5581 5580 5577 5576 5575 5578 5582
5705 5708 5709 5710 5709 5708 5708 5707 5705 5705 5701 5697 5693 5689 5683 5677 5671 5663 5656 5648 5639 5629 5619 5609 5604 5597 5591 5586 5581 5577 5574 5575 5575 5576 5577 5578 5578 5579 5580 5580 5578 5575 5573 5575 5580
5696 5699 5701 5703 5702 5701 5701 5701 5699 5698 5697 5691 5688 5683 5677 5672 5666 5659 5652 5643 5636 5626 5617 5607 5601 5594 5588 5584 5580 5575 5572 5572 5572 5573 5574 5576 5578 5577 5578 5580 5578 5574 5572 5573 5578
5688 5689 5693 5695 5695 5694 5694 5694 5693 5692 5690 5687 5682 5677 5673 5667 5661 5654 5647 5638 5630 5622 5612 5603 5597 5590 5585 5580 5575 5572 5569 5568 5569 5569 5571 5574 5576 5577 5578 5579 5578 5575 5572 5571 5578